Meteo pe oră la Arbela

Astăzi, 24 Octombrie, Sâmbătă

Timp Temperatura Precipitaţii Vânt Presiune Umiditate
00:00 +22°C° 0 mm 1 m/s 727 mmHg 24%
01:00 +21°C° 0 mm 2 m/s 727 mmHg 25%
02:00 +21°C° 0 mm 2 m/s 727 mmHg 26%
03:00 +20°C° 0 mm 2 m/s 727 mmHg 27%
04:00 +20°C° 0 mm 2 m/s 726 mmHg 27%
05:00 +20°C° 0 mm 2 m/s 726 mmHg 27%
06:00 +20°C° 0 mm 2 m/s 726 mmHg 27%
07:00 +24°C° 0 mm 2 m/s 727 mmHg 22%
08:00 +27°C° 0 mm 2 m/s 727 mmHg 17%
09:00 +30°C° 0 mm 2 m/s 728 mmHg 13%
10:00 +31°C° 0 mm 2 m/s 727 mmHg 11%
11:00 +34°C° 0 mm 2 m/s 727 mmHg 10%
12:00 +36°C° 0 mm 2 m/s 727 mmHg 9%
13:00 +36°C° 0 mm 2 m/s 727 mmHg 8%
14:00 +37°C° 0 mm 2 m/s 727 mmHg 8%
15:00 +37°C° 0 mm 2 m/s 726 mmHg 8%
16:00 +33°C° 0 mm 1 m/s 726 mmHg 10%
17:00 +30°C° 0 mm 1 m/s 726 mmHg 12%
18:00 +26°C° 0 mm 1 m/s 725 mmHg 15%
19:00 +26°C° 0 mm 1 m/s 726 mmHg 15%
20:00 +25°C° 0 mm 1 m/s 726 mmHg 16%
21:00 +24°C° 0 mm 1 m/s 726 mmHg 17%
22:00 +24°C° 0 mm 2 m/s 726 mmHg 16%
23:00 +24°C° 0 mm 2 m/s 726 mmHg 16%

Mâine, 25 Octombrie, Duminică

Timp Temperatura Precipitaţii Vânt Presiune Umiditate
00:00 +24°C° 0 mm 2 m/s 726 mmHg 15%
01:00 +23°C° 0 mm 2 m/s 726 mmHg 15%
02:00 +23°C° 0 mm 2 m/s 726 mmHg 16%
03:00 +23°C° 0 mm 2 m/s 726 mmHg 16%
04:00 +21°C° 0 mm 2 m/s 726 mmHg 17%
05:00 +21°C° 0 mm 2 m/s 726 mmHg 18%
06:00 +20°C° 0 mm 2 m/s 726 mmHg 19%
07:00 +24°C° 0 mm 2 m/s 726 mmHg 16%
08:00 +27°C° 0 mm 3 m/s 727 mmHg 13%
09:00 +30°C° 0 mm 3 m/s 727 mmHg 10%
10:00 +33°C° 0 mm 3 m/s 727 mmHg 9%
11:00 +34°C° 0 mm 4 m/s 727 mmHg 8%
12:00 +36°C° 0 mm 4 m/s 727 mmHg 6%
13:00 +36°C° 0 mm 4 m/s 726 mmHg 6%
14:00 +36°C° 0 mm 4 m/s 726 mmHg 6%
15:00 +36°C° 0 mm 4 m/s 726 mmHg 6%
16:00 +33°C° 0 mm 3 m/s 725 mmHg 9%
17:00 +28°C° 0 mm 2 m/s 725 mmHg 12%
18:00 +25°C° 0 mm 2 m/s 725 mmHg 14%
19:00 +24°C° 0 mm 2 m/s 725 mmHg 14%
20:00 +24°C° 0 mm 2 m/s 725 mmHg 13%
21:00 +23°C° 0 mm 1 m/s 726 mmHg 13%
22:00 +23°C° 0 mm 2 m/s 726 mmHg 13%
23:00 +23°C° 0 mm 2 m/s 726 mmHg 13%

Poimâine, 26 Octombrie, Luni

Timp Temperatura Precipitaţii Vânt Presiune Umiditate
00:00 +22°C° 0 mm 3 m/s 726 mmHg 12%
01:00 +21°C° 0 mm 3 m/s 726 mmHg 13%
02:00 +21°C° 0 mm 3 m/s 726 mmHg 13%
03:00 +20°C° 0 mm 3 m/s 726 mmHg 14%
04:00 +20°C° 0 mm 2 m/s 726 mmHg 15%
05:00 +19°C° 0 mm 2 m/s 726 mmHg 15%
06:00 +19°C° 0 mm 2 m/s 726 mmHg 16%
07:00 +21°C° 0 mm 2 m/s 727 mmHg 14%
08:00 +25°C° 0 mm 2 m/s 727 mmHg 13%
09:00 +27°C° 0 mm 2 m/s 728 mmHg 11%
10:00 +28°C° 0 mm 2 m/s 727 mmHg 11%
11:00 +30°C° 0 mm 2 m/s 727 mmHg 10%
12:00 +31°C° 0 mm 2 m/s 727 mmHg 10%
13:00 +31°C° 0 mm 2 m/s 727 mmHg 9%
14:00 +31°C° 0 mm 2 m/s 727 mmHg 9%
15:00 +32°C° 0 mm 2 m/s 726 mmHg 9%
16:00 +28°C° 0 mm 1 m/s 726 mmHg 12%
17:00 +25°C° 0 mm 1 m/s 726 mmHg 14%
18:00 +22°C° 0 mm 1 m/s 726 mmHg 17%
19:00 +22°C° 0 mm 1 m/s 726 mmHg 17%
20:00 +22°C° 0 mm 1 m/s 727 mmHg 18%
21:00 +20°C° 0 mm 2 m/s 727 mmHg 18%
22:00 +21°C° 0 mm 1 m/s 727 mmHg 19%
23:00 +20°C° 0 mm 1 m/s 727 mmHg 20%

, 27 Octombrie, Marţi

Timp Temperatura Precipitaţii Vânt Presiune Umiditate
00:00 +20°C° 0 mm 1 m/s 727 mmHg 21%
01:00 +19°C° 0 mm 1 m/s 727 mmHg 23%
02:00 +19°C° 0 mm 1 m/s 726 mmHg 25%
03:00 +18°C° 0 mm 1 m/s 726 mmHg 28%
04:00 +18°C° 0 mm 1 m/s 726 mmHg 29%
05:00 +18°C° 0 mm 1 m/s 726 mmHg 30%
06:00 +16°C° 0 mm 1 m/s 726 mmHg 31%
07:00 +20°C° 0 mm 1 m/s 727 mmHg 25%
08:00 +24°C° 0 mm 1 m/s 727 mmHg 18%
09:00 +25°C° 0 mm 0 m/s 728 mmHg 12%
10:00 +28°C° 0 mm 1 m/s 728 mmHg 11%
11:00 +30°C° 0 mm 2 m/s 728 mmHg 10%
12:00 +33°C° 0 mm 3 m/s 728 mmHg 8%
13:00 +33°C° 0 mm 3 m/s 727 mmHg 8%
14:00 +33°C° 0 mm 4 m/s 727 mmHg 8%
15:00 +33°C° 0 mm 4 m/s 726 mmHg 8%
16:00 +29°C° 0 mm 3 m/s 726 mmHg 11%
17:00 +26°C° 0 mm 2 m/s 726 mmHg 13%
18:00 +23°C° 0 mm 2 m/s 726 mmHg 15%
19:00 +23°C° 0 mm 2 m/s 726 mmHg 16%
20:00 +22°C° 0 mm 1 m/s 726 mmHg 17%
21:00 +21°C° 0 mm 1 m/s 726 mmHg 18%
22:00 +20°C° 0 mm 1 m/s 726 mmHg 19%
23:00 +20°C° 0 mm 1 m/s 726 mmHg 20%

27 Octombrie, Marţi

Timp Temperatura Precipitaţii Vânt Presiune Umiditate
00:00 +20°C° 0 mm 1 m/s 727 mmHg 21%
01:00 +19°C° 0 mm 1 m/s 727 mmHg 23%
02:00 +19°C° 0 mm 1 m/s 726 mmHg 25%
03:00 +18°C° 0 mm 1 m/s 726 mmHg 28%
04:00 +18°C° 0 mm 1 m/s 726 mmHg 29%
05:00 +18°C° 0 mm 1 m/s 726 mmHg 30%
06:00 +16°C° 0 mm 1 m/s 726 mmHg 31%
07:00 +20°C° 0 mm 1 m/s 727 mmHg 25%
08:00 +24°C° 0 mm 1 m/s 727 mmHg 18%
09:00 +25°C° 0 mm 0 m/s 728 mmHg 12%
10:00 +28°C° 0 mm 1 m/s 728 mmHg 11%
11:00 +30°C° 0 mm 2 m/s 728 mmHg 10%
12:00 +33°C° 0 mm 3 m/s 728 mmHg 8%
13:00 +33°C° 0 mm 3 m/s 727 mmHg 8%
14:00 +33°C° 0 mm 4 m/s 727 mmHg 8%
15:00 +33°C° 0 mm 4 m/s 726 mmHg 8%
16:00 +29°C° 0 mm 3 m/s 726 mmHg 11%
17:00 +26°C° 0 mm 2 m/s 726 mmHg 13%
18:00 +23°C° 0 mm 2 m/s 726 mmHg 15%
19:00 +23°C° 0 mm 2 m/s 726 mmHg 16%
20:00 +22°C° 0 mm 1 m/s 726 mmHg 17%
21:00 +21°C° 0 mm 1 m/s 726 mmHg 18%
22:00 +20°C° 0 mm 1 m/s 726 mmHg 19%
23:00 +20°C° 0 mm 1 m/s 726 mmHg 20%

28 Octombrie, Miercuri

Timp Temperatura Precipitaţii Vânt Presiune Umiditate
00:00 +19°C° 0 mm 1 m/s 726 mmHg 21%
01:00 +19°C° 0 mm 1 m/s 726 mmHg 23%
02:00 +19°C° 0 mm 1 m/s 726 mmHg 26%
03:00 +18°C° 0 mm 1 m/s 726 mmHg 28%
04:00 +18°C° 0 mm 1 m/s 726 mmHg 29%
05:00 +18°C° 0 mm 1 m/s 726 mmHg 29%
06:00 +16°C° 0 mm 1 m/s 726 mmHg 30%
07:00 +21°C° 0 mm 1 m/s 727 mmHg 24%
08:00 +24°C° 0 mm 1 m/s 727 mmHg 18%
09:00 +27°C° 0 mm 1 m/s 728 mmHg 11%
10:00 +29°C° 0 mm 1 m/s 728 mmHg 10%
11:00 +31°C° 0 mm 2 m/s 728 mmHg 9%
12:00 +34°C° 0 mm 2 m/s 728 mmHg 8%
13:00 +34°C° 0 mm 2 m/s 727 mmHg 7%
14:00 +35°C° 0 mm 2 m/s 727 mmHg 7%
15:00 +35°C° 0 mm 3 m/s 727 mmHg 6%
16:00 +31°C° 0 mm 2 m/s 727 mmHg 8%
17:00 +28°C° 0 mm 2 m/s 727 mmHg 10%
18:00 +25°C° 0 mm 2 m/s 726 mmHg 12%
19:00 +24°C° 0 mm 2 m/s 727 mmHg 13%
20:00 +24°C° 0 mm 2 m/s 727 mmHg 14%
21:00 +23°C° 0 mm 2 m/s 727 mmHg 15%
22:00 +23°C° 0 mm 2 m/s 727 mmHg 15%
23:00 +21°C° 0 mm 2 m/s 727 mmHg 15%

29 Octombrie, Joi

Timp Temperatura Precipitaţii Vânt Presiune Umiditate
00:00 +21°C° 0 mm 2 m/s 727 mmHg 15%
01:00 +21°C° 0 mm 2 m/s 727 mmHg 16%
02:00 +20°C° 0 mm 2 m/s 727 mmHg 16%
03:00 +20°C° 0 mm 2 m/s 727 mmHg 16%
04:00 +21°C° 0 mm 1 m/s 727 mmHg 16%
05:00 +21°C° 0 mm 1 m/s 727 mmHg 16%
06:00 +20°C° 0 mm 1 m/s 727 mmHg 16%
07:00 +23°C° 0 mm 1 m/s 728 mmHg 14%
08:00 +26°C° 0 mm 1 m/s 728 mmHg 12%
09:00 +29°C° 0 mm 1 m/s 729 mmHg 10%
10:00 +30°C° 0 mm 1 m/s 729 mmHg 9%
11:00 +32°C° 0 mm 1 m/s 729 mmHg 8%
12:00 +35°C° 0 mm 2 m/s 729 mmHg 8%
13:00 +35°C° 0 mm 2 m/s 728 mmHg 9%
14:00 +35°C° 0 mm 3 m/s 728 mmHg 10%
15:00 +36°C° 0 mm 3 m/s 728 mmHg 10%
16:00 +33°C° 0 mm 3 m/s 728 mmHg 12%
17:00 +30°C° 0 mm 2 m/s 728 mmHg 14%
18:00 +27°C° 0 mm 2 m/s 728 mmHg 16%
19:00 +26°C° 0 mm 2 m/s 728 mmHg 16%
20:00 +25°C° 0 mm 2 m/s 728 mmHg 17%
21:00 +24°C° 0 mm 1 m/s 728 mmHg 17%
22:00 +24°C° 0 mm 1 m/s 728 mmHg 18%
23:00 +24°C° 0 mm 1 m/s 728 mmHg 19%
Arată mai mult

Formular de consimțământ

Meteoprog și furnizorii noștri de servicii pot stoca și accesa date personale, precum cookies, identificatori de dispozitiv sau alte tehnologii similare pe dispozitivul dumneavoastră și procesa astfel de date pentru a personaliza conținutul și reclamele, dar și pentru a oferi caracteristici de social media și pentru a analiza traficul.

  • Stocarea și/sau accesarea informațiilor pe dispozitivul dumneavoastră

    Cookies, identificatori de dispozitiv sau alte informații pot fi stocate sau accesate pe dispozitiv în scopurile indicate mai sus.

  • Reclame și conținut personalizat, evaluarea reclamelor și a conținutului, informații despre audiențe și dezvoltarea produselor

    Reclamele și conținutul pot fi personalizate pe baza unui profil. Pot fi adăugate date suplimentare pentru a personaliza mai bine reclamele și conținutul. Performanța reclamelor și conținutului poate fi măsurată. Pot fi obținute informații despre utilizatorii care au văzut reclamele și conținutul. Aceste date pot fi utilizate pentru a dezvolta sau îmbunătăți experiența utilizatorilor, sistemele și software-ul.

Dând clic pe ‘Sunt de acord’, permiteți utilizarea cookie-urilor menționate, a identificatorilor de dispozitiv, balizelor web sau altor tehnologii similare. Setările pot fi modificate din browser-ul dispozitivului dumneavoastră.

În anumite scopuri, interesele legitime pot prima asupra consimțământului. Puteți citi mai multe informații în acest sens în Politica privind Confidențialitatea Datelor și Cookie.